Tracking 35274 objects as of 12-Sep-2026
HD Live streaming from Space Station
objects crossing your sky now

STARLINK-2133


STARLINK-2133 is no longer on orbit
STARLINK-2133 is classified as:


NORAD ID: 47406
Int'l Code: 2021-005BK
Launch date: January 20, 2021
Source: United States (US)
Launch site: AIR FORCE EASTERN TEST RANGE (AFETR)
Decay date: 2026-01-30
Your satellite tracking list
Your tracking list is empty




NASA's NSSDC Master Catalog

Two Line Element Set (TLE):
1 47406U 21005BK  26030.78311660  .06783928  12337-4  77613-3 0  9992
2 47406  53.0235 151.3733 0007384 328.0956  31.9641 16.36031453278451
Source of the keplerian elements: AFSPC